This is the latest recevied weather packets stored in our database for station/object KB4RFE. If no packets are shown the sender has not sent any weather packets the latest 10 day(s).
| Time | Temp. | Humidity | Pressure | Rain* | Wind** | Luminosity | Snow |
|---|---|---|---|---|---|---|---|
| 1787933933 | 27.78° C | 85% | 1021.1 hPa | 0 mm | - | 387 W/m² | - |
| 1787933633 | 27.22° C | 86% | 1020.8 hPa | 0 mm | - | 292 W/m² | - |
| 1787933328 | 27.22° C | 86% | 1021 hPa | 0 mm | - | 233 W/m² | - |
| 1787933028 | 27.22° C | 85% | 1020.9 hPa | 0 mm | - | 194 W/m² | - |
| 1787932727 | 27.22° C | 86% | 1021 hPa | 0 mm | - | 154 W/m² | - |
| 1787932426 | 27.22° C | 87% | 1021.1 hPa | 0 mm | - | 133 W/m² | - |
| 1787932121 | 27.22° C | 86% | 1021.1 hPa | 0 mm | - | 137 W/m² | - |
| 1787931821 | 27.22° C | 86% | 1021 hPa | 0 mm | - | 148 W/m² | - |
| 1787931521 | 27.22° C | 86% | 1021 hPa | 0 mm | - | 155 W/m² | - |
| 1787931221 | 27.22° C | 85% | 1021.1 hPa | 0 mm | - | 169 W/m² | - |
| 1787930920 | 27.22° C | 85% | 1021.1 hPa | 0 mm | - | 179 W/m² | - |
| 1787930619 | 27.22° C | 85% | 1021.1 hPa | 0 mm | - | 188 W/m² | - |
| 1787930314 | 27.22° C | 86% | 1021 hPa | 0 mm | - | 187 W/m² | - |
| 1787930010 | 27.22° C | 86% | 1021 hPa | 0 mm | - | 181 W/m² | - |
| 1787929708 | 27.22° C | 86% | 1020.9 hPa | 0 mm | - | 173 W/m² | - |
| 1787929403 | 27.22° C | 85% | 1021 hPa | 0 mm | - | 177 W/m² | - |
| 1787929100 | 27.22° C | 84% | 1021.1 hPa | 0 mm | - | 170 W/m² | - |
| 1787928796 | 27.22° C | 84% | 1021.1 hPa | 0 mm | - | 176 W/m² | - |
| 1787928495 | 27.22° C | 84% | 1021.1 hPa | 0 mm | - | 188 W/m² | - |
| 1787928189 | 27.78° C | 84% | 1021 hPa | 0 mm | - | 198 W/m² | - |
| 1787927888 | 27.22° C | 83% | 1020.9 hPa | 0 mm | - | 204 W/m² | - |
| 1787927583 | 27.22° C | 84% | 1021 hPa | 0 mm | - | 249 W/m² | - |
| 1787927278 | 27.22° C | 83% | 1020.8 hPa | 0 mm | - | 259 W/m² | - |
| 1787926973 | 27.22° C | 86% | 1020.9 hPa | 0 mm | - | 296 W/m² | - |
| 1787926673 | 27.22° C | 84% | 1020.9 hPa | 0 mm | - | 282 W/m² | - |
* Rain latest hour (hover to see other rain measurements)
** Current wind speed in m/s (hover to see current wind gust speed)